This demonstration page uses our WeatherBlox Daily Observations layout. Learn more.

Left ArrowRight Arrow

39.92423, -83.80882

Hourly Observations for June 16, 2015

Temp ( °F °C ) Dew Point ( °F °C ) Humidity (%) Winds ( mph kmh ) Pressure ( in mb ) Visibility ( mi km ) Precip ( " mm )
12:56 am 00:56 Mostly Cloudy 78 25.5 71 21.6 79 79 SW 14 22 29.99 1016 9 14.48406 0 0
1:56 am 01:56 Clear 76 24.4 72 22.2 88 88 SW 12 19 29.97 1015 9 14.48406 0 0
2:46 am 02:46 Mostly Cloudy 77 25 72 22 83 83 WSW 22 35 29.97 1015 7 11.26538 0 0.0254
2:56 am 02:56 Mostly Cloudy with Thunderstorms 77 25 69 20.5 76 76 WSW 22 35 29.99 1016 9 14.48406 0 0.0254
3:07 am 03:07 Cloudy with Light Thunderstorms 73 23 72 22 94 94 WSW 18 30 30 1016 3 4.82802 0.02 0.508
3:15 am 03:15 Cloudy with Light Thunderstorms 73 23 72 22 94 94 WSW 13 20 30 1016 2.5 4.02335 0.04 1.016
3:17 am 03:17 Mostly Cloudy with Light Thunderstorms 73 23 72 22 94 94 WSW 13 20 30 1016 3 4.82802 0.04 1.016
3:31 am 03:31 Cloudy with Light Rain 72 22 72 22 100 100 WSW 8 13 30 1016 5 8.0467 0.06 1.524
3:49 am 03:49 Mostly Cloudy with Nearby Thunderstorms 72 22 72 22 100 100 SW 8 13 30 1016 3 4.82802 0.1 2.54
3:56 am 03:56 Mostly Cloudy with Mist and Fog 71 21.6 71 21.6 100 100 SW 8 13 30 1016 3 4.82802 0.11 2.794
4:04 am 04:04 Cloudy with Light Rain 72 22 72 22 100 100 SSW 8 13 30 1016 5 8.0467 0.01 0.254
4:08 am 04:08 Cloudy with Light Rain 72 22 72 22 100 100 SSW 8 13 30 1016 6 9.65604 0.01 0.254
4:42 am 04:42 Cloudy with Rain 72 22 72 22 100 100 SW 9 15 30 1016 2.5 4.02335 0.04 1.016
4:56 am 04:56 Mostly Cloudy with Light Rain 71 21.6 71 21.6 100 100 SW 9 15 29.99 1016 5 8.0467 0.04 1.016
5:56 am 05:56 Mostly Cloudy with Light Rain 71 21.6 71 21.6 100 100 SW 9 15 30 1016 4 6.43736 0.03 0.762
6:35 am 06:35 Cloudy with Light Rain 72 22 72 22 100 100 SW 9 15 30 1016 4 6.43736 0.05 1.27
6:56 am 06:56 Mostly Cloudy with Light Rain 71 21.6 71 21.6 100 100 WSW 9 15 30.01 1016 5 8.0467 0.06 1.524
7:03 am 07:03 Mostly Cloudy with Mist and Fog 72 22 72 22 100 100 SW 10 17 30 1016 6 9.65604 0 0.0254
7:12 am 07:12 Mostly Cloudy with Light Rain 72 22 72 22 100 100 SW 10 17 30.03 1017 7 11.26538 0 0.0254
7:42 am 07:42 Cloudy 72 22 72 22 100 100 W 9 15 30.03 1017 7 11.26538 0 0.0254
7:56 am 07:56 Cloudy 72 22.2 72 22.2 100 100 WSW 9 15 30.04 1017 8 12.87472 0 0.0254
8:07 am 08:07 Cloudy with Mist and Fog 72 22 72 22 100 100 WSW 8 13 30.03 1017 2.5 4.02335 0 0.0254
8:09 am 08:09 Cloudy with Mist and Fog 72 22 72 22 100 100 WSW 9 15 30.03 1017 3 4.82802 0 0.0254
8:22 am 08:22 Cloudy 72 22 72 22 100 100 W 10 17 30.03 1017 8 12.87472 0.01 0.254
8:56 am 08:56 Cloudy 73 22.7 73 22.7 100 100 W 8 13 30.04 1017 9 14.48406 0.01 0.254
9:27 am 09:27 Cloudy 73 23 73 23 100 100 W 10 17 30.06 1018 8 12.87472 0 0
9:36 am 09:36 Cloudy 73 23 73 23 100 100 WSW 10 17 30.06 1018 8 12.87472 0 0
9:56 am 09:56 Mostly Cloudy 76 24.4 73 22.7 90 90 W 10 17 30.06 1018 8 12.87472 0 0
10:33 am 10:33 Cloudy 75 24 72 22 89 89 W 10 17 30.06 1018 8 12.87472 0 0
10:56 am 10:56 Cloudy 76 24.4 72 22.2 88 88 W 12 19 30.06 1018 8 12.87472 0 0
11:15 am 11:15 Mostly Cloudy 75 24 72 22 89 89 W 12 19 30.06 1018 9 14.48406 0 0
11:56 am 11:56 Mostly Cloudy 78 25.5 72 22.2 82 82 W 12 19 30.08 1019 9 14.48406 0 0
12:15 pm 12:15 Mostly Cloudy 79 26 72 22 79 79 W 13 20 30.06 1018 9 14.48406 0 0
12:36 pm 12:36 Mostly Cloudy 79 26 72 22 79 79 W 12 19 30.09 1019 9 14.48406 0 0
12:56 pm 12:56 Cloudy 78 25.5 72 22.2 82 82 WSW 12 19 30.08 1019 8 12.87472 0 0
1:45 pm 13:45 Cloudy with Rain 73 23 72 22 94 94 NW 8 13 30.09 1019 1.75 2.816345 0.01 0.254
1:56 pm 13:56 Cloudy with Light Rain 73 22.7 72 22.2 97 97 W 7 11 30.09 1019 1.5 2.41401 0.02 0.508
2:02 pm 14:02 Cloudy with Light Rain 73 23 72 22 94 94 W 7 11 30.09 1019 3 4.82802 0 0.0254
2:56 pm 14:56 Partly Cloudy 77 25 73 22.7 87 87 W 8 13 30.07 1018 7 11.26538 0 0.0254
3:56 pm 15:56 Mostly Cloudy 78 25.5 72 22.2 82 82 W 7 11 30.06 1018 8 12.87472 0 0
4:56 pm 16:56 Partly Cloudy 82 27.7 72 22.2 72 72 NNW 6 9 30.05 1018 8 12.87472 0 0
5:56 pm 17:56 Partly Cloudy 83 28.3 72 22.2 70 70 VRB 3 6 30.04 1017 8 12.87472 0 0
6:14 pm 18:14 Mostly Cloudy 81 27 72 22 74 74 NNW 6 9 30.03 1017 9 14.48406 0 0
6:23 pm 18:23 Mostly Cloudy 82 28 72 22 70 70 NNW 6 9 30.03 1017 8 12.87472 0 0
6:56 pm 18:56 Partly Cloudy 83 28.3 70 21.1 65 65 N 7 11 30.05 1018 8 12.87472 0 0
7:56 pm 19:56 Cloudy 82 27.7 70 21.1 67 67 ENE 6 9 30.06 1018 9 14.48406 0 0
8:56 pm 20:56 Mostly Cloudy 78 25.5 71 21.6 79 79 S 3 6 30.07 1018 8 12.87472 0 0
9:56 pm 21:56 Partly Cloudy 75 23.8 72 22.2 91 91 Calm 30.09 1019 9 14.48406 0 0
10:56 pm 22:56 Cloudy 75 23.8 72 22.2 91 91 Calm 30.11 1020 9 14.48406 0 0
11:56 pm 23:56 Clear 73 22.7 72 22.2 97 97 Calm 30.1 1019 9 14.48406 0 0

Powered by AerisWeather